FW2512 Weather Reports


time (UTC)temp
C
wind
direction
speed
KPH
gust
KPH
rain 1hr
cm
rain 24hr
cm
rain mn
cm
humidity
%
barometer
mb
20211026184650 17 332 4.8 16.1 0.00 0.08 0.00 38 1009.3
20211026181624 18 326 4.8 16.1 0.00 0.08 0.00 38 1009.4
20211026180205 17 360 8.0 17.7 0.00 0.08 0.00 38 1009.4
20211026174556 17 329 6.4 14.5 0.00 0.08 0.00 39 1009.4
20211026171622 17 49 8.0 19.3 0.00 0.08 0.00 39 1010.0
20211026170058 17 306 8.0 17.7 0.00 0.08 0.00 40 1010.2
20211026164632 17 329 9.7 20.9 0.00 0.08 0.00 43 1010.4
20211026161555 17 306 3.2 14.5 0.00 0.08 0.00 44 1010.5
20211026160100 17 291 4.8 11.3 0.00 0.08 0.00 44 1010.5
20211026154707 16 339 8.0 20.9 0.00 0.08 0.00 43 1010.7
20211026151553 16 343 6.4 14.5 0.00 0.08 0.00 45 1010.4
20211026150115 16 309 4.8 16.1 0.00 0.08 0.00 48 1010.3
20211026144601 16 24 4.8 12.9 0.00 0.08 0.00 46 1010.0
20211026141610 15 190 6.4 16.1 0.00 0.08 0.00 54 1009.7
20211026140058 15 126 9.7 16.1 0.00 0.08 0.00 57 1009.4
20211026134547 15 164 0.0 8.0 0.00 0.08 0.00 60 1009.6
20211026133040 15 157 0.0 12.9 0.00 0.08 0.00 63 1009.6
20211026131519 14 131 3.2 6.4 0.00 0.08 0.00 61 1009.4
20211026124523 13 109 4.8 9.7 0.00 0.08 0.00 63 1009.2
20211026123029 13 47 8.0 19.3 0.00 0.08 0.00 64 1008.9
20211026121512 12 342 4.8 17.7 0.00 0.08 0.00 67 1009.0
20211026113011 12 327 14.5 29.0 0.00 0.08 0.00 68 1008.9
20211026111531 12 329 11.3 35.4 0.00 0.08 0.00 69 1008.8
20211026104506 12 296 11.3 25.7 0.00 0.08 0.00 69 1008.8
20211026103004 12 11 11.3 22.5 0.00 0.08 0.00 70 1008.8
20211026094744 12 331 12.9 25.7 0.00 0.08 0.00 69 1008.6
20211026093140 12 315 12.9 27.4 0.00 0.08 0.00 69 1008.4
20211026091617 12 341 9.7 20.9 0.00 0.08 0.00 69 1008.4
20211026084637 11 351 8.0 20.9 0.00 0.08 0.00 72 1008.6
20211026083121 11 346 0.0 3.2 0.00 0.08 0.00 73 1008.3
20211026081623 11 346 0.0 9.7 0.00 0.08 0.00 72 1008.3
20211026074536 12 327 8.0 17.7 0.00 0.08 0.00 70 1008.1
20211026073042 12 309 9.7 25.7 0.00 0.08 0.00 69 1007.7
20211026071533 12 319 4.8 19.3 0.00 0.08 0.00 68 1007.4
20211026064553 13 187 4.8 29.0 0.00 0.08 0.08 68 1007.3
20211026063057 12 340 0.0 9.7 0.00 0.08 0.08 72 1007.6
20211026061548 13 263 4.8 22.5 0.00 0.08 0.08 72 1007.5
20211026054527 13 331 4.8 19.3 0.00 0.08 0.08 77 1007.1
20211026053024 13 330 0.0 6.4 0.00 0.08 0.08 83 1007.2
20211026051541 13 74 1.6 3.2 0.00 0.08 0.08 84 1007.2
20211026044537 14 209 1.6 6.4 0.00 0.08 0.08 85 1006.7
20211026043035 14 347 0.0 3.2 0.00 0.08 0.08 85 1006.6
20211026034547 15 273 0.0 0.0 0.00 0.08 0.08 85 1006.3
20211026033154 15 273 0.0 0.0 0.00 0.08 0.08 85 1006.3
20211026031544 15 273 0.0 0.0 0.00 0.08 0.08 85 1006.3
20211026024523 15 274 0.0 0.0 0.00 0.08 0.08 85 1006.4
20211026023050 15 275 0.0 0.0 0.00 0.08 0.08 85 1006.1
20211026021525 16 277 0.0 0.0 0.00 0.08 0.08 84 1006.3
20211026014522 16 273 0.0 0.0 0.00 0.08 0.08 85 1006.2
20211026013014 16 271 0.0 3.2 0.00 0.08 0.08 85 1006.2
20211026011526 16 346 0.0 1.6 0.00 0.08 0.08 84 1006.3
20211026004513 16 346 0.0 0.0 0.00 0.08 0.08 84 1006.5
20211026003020 16 346 0.0 0.0 0.00 0.08 0.08 84 1006.6
20211026001514 17 346 0.0 0.0 0.00 0.08 0.08 84 1006.8
20211025234510 17 346 0.0 1.6 0.00 0.08 0.08 82 1007.1
20211025233025 17 346 0.0 1.6 0.05 0.08 0.08 81 1007.3
20211025231525 17 346 1.6 3.2 0.08 0.08 0.08 79 1007.2
20211025224507 18 9 0.0 6.4 0.08 0.08 0.08 74 1007.3
20211025223011 18 225 0.0 9.7 0.03 0.03 0.03 69 1007.4
20211025221541 19 18 0.0 8.0 0.03 0.03 0.03 67 1007.6
20211025214512 20 234 3.2 9.7 0.00 0.00 0.00 63 1007.2
20211025213007 21 228 6.4 19.3 0.00 0.00 0.00 61 1007.1
20211025211505 22 234 1.6 9.7 0.00 0.00 0.00 59 1007.2
20211025204505 22 169 8.0 20.9 0.00 0.00 0.00 53 1007.3
20211025203010 23 193 12.9 20.9 0.00 0.00 0.00 52 1007.3
20211025201503 23 171 11.3 22.5 0.00 0.00 0.00 51 1007.3
20211025194714 23 244 9.7 20.9 0.00 0.00 0.00 49 1007.7
20211025193154 23 236 11.3 27.4 0.00 0.00 0.00 49 1008.1
20211025191649 24 228 11.3 24.1 0.00 0.00 0.00 47 1008.1
20211025190059 23 273 8.0 24.1 0.00 0.00 0.00 48 1008.6